DECAYED

STARLINK-1808, 46707 (Decayed)

Orbit data source: Space-Track

STARLINK-1808, 46707 was a payload satellite owned by SpaceX/Seattle (US) in LEO that was launched on Sun, 18 Oct 2020 UTC via an FALCON 9 launch vehicle from the Air Force Eastern Test Range (AFETR). Payload-class satellites include a variety of spacecraft equipped with specific instruments for various scientific and technological missions. These include communications satellites like Starlink; space stations such as the ISS; scientific satellites like the Hubble; Earth observation satellites from companies like Planet Labs, Umbra, and HawkEye 360; GPS; miniature CubeSats for education and research; and military/defense satellites.

Not visible in the next 10 days
Identifier
46707, 2020-073AP
Orbit
Decayed
Last TLE update
2 months ago
Origin
Manufacturer
SpaceX/Seattle
Mission
Decayed Commercial Communications
Bus & Motor
STARLINK, Unknown motor
Mass
260 kg wet, ~248 kg dry
Launch date (UTC)
2020-10-18 (5 years ago)
Launch vehicle
FALCON 9
Launch site
Air Force Eastern Test Range (AFETR)
Object type
Payload
Rocket body
Debris
Shape & HBR
Box + 1 Pan, 8.86 m
Radar Cross Section
13.562 m², Large (>1 m²)

Expand to show TLE details & history

TLE from 2 months ago
0 STARLINK-1808
1 46707U 20073AP  25114.66700407  .18271860  12410-4  62444-3 0  9997
2 46707  53.0151 149.6226 0006929 234.8873 226.3397 16.44115334250700
Epoch: 2025-04-24T16:00Z
TLE epoch observation values (Epoch: 2025-04-24T16:00:29.151Z)
Latitude
51.75492°
Longitude
164.75684°
Altitude
164.156 km
Speed
7.812 km/s
True Right ascension
17h 11m 15s
True Declination
51° 34' 21"
Sunlit
Object was in full shadow at epoch
Visualization orbit readout
Visualization observer readout
Orbital elements
Apogee altitude
159.698 km
Perigee altitude
150.644 km
Semi-major axis
6,533.308 km
Eccentricity
0.00069
Inclination
53.0151°
RAAN
149.6226°
Arg. of periapsis
234.8873°
True anomaly
Unknown
Mean anomaly
226.3397°
Eccentric anomaly
Unknown
Mean motion
4.11002 °/min
Orbital period
87.59 mins
BSTAR
0.00062444
Loading maneuver chart data...
Loading SW <> Apogee altitude chart data...
Loading historical data...
Loading historical data...
Loading historical data...
Loading historical data...
Loading historical data...
Loading historical data...
Loading historical data...

STARLINK-1808 Visibility

Observer location: undefined°, undefined°

This satellite is decayed
Span
Click to sort rows by Start time (UTC) header in descending order
Start Az.
Max El. time (UTC)
Max El. Az.
Max El.
End time (UTC)
End Az.
|